"Pseudo-MPEC" for C0V8ED5

Created 2024 Dec 1 18:31:05 UT using Find_Orb

Click here for an explanation of pseudo-MPECs

 
 Astrometry: 
     C0V8ED5* C2024 11 26.23870901 53 57.944+18 08 21.41   ~BQ6l 22.16GVNEOCPV00
     C0V8ED5  C2024 11 26.24496201 53 52.462+18 08 53.63   ~BQ6l 21.30GVNEOCPV00
     C0V8ED5  C2024 11 26.25119001 53 46.972+18 09 25.70   ~BQ6l 21.54GVNEOCPV00
     C0V8ED5  C2024 11 26.25741901 53 41.536+18 09 57.64   ~BQ6l 21.90GVNEOCPV00
     C0V8ED5  C2024 11 26.31727001 52 48.930+18 15 03.60   ~BQ8V 22.1 RVNEOCP291
     C0V8ED5  C2024 11 26.32533001 52 41.880+18 15 44.40   ~BQ8V 22.5 RVNEOCP291
     C0V8ED5  C2024 11 26.33352001 52 34.700+18 16 26.50   ~BQ8V       VNEOCP291
     C0V8ED5 KC2024 11 26.36523201 52 07.144+18 19 05.38   ~BQ9H 22.23GVNEOCPV06
     C0V8ED5 KC2024 11 26.36854301 52 04.274+18 19 22.08   ~BQ9H 22.07GVNEOCPV06
     C0V8ED5 KC2024 11 26.37185401 52 01.405+18 19 39.00   ~BQ9H 21.76GVNEOCPV06

Station data:
(291) LPL/Spacewatch II  (N31.961669 W111.599905)  US/Arizona.  Observers J.
   V. Scotti, R. S. McMillan. 1.8-m f/2.7 reflector + CCD.
(V00) Kitt Peak-Bok  (N31.963125 W111.600190)  US/Arizona.  Observers T. A.
   Pruyne, B. M. Africano, E. J. Christensen, G. A. Farneth, D. C. Fuls, A.
   R. Gibbs, A. D. Grauer, H. Gröller, J. A. Johnson, R. A. Kowalski, S. M.
   Larson, G. J. Leonard, D. Rankin, R. L. Seaman, F. C. Shelly, K. W.
   Wierzchoś. 2.25-m reflector + 4x4K mosaic CCD.
(V06) Catalina Sky Survey-Kuiper  (N32.416871 W110.732550)  US/Arizona.
   Observers T. A. Pruyne, B. M. Africano, E. J. Christensen, G. A. Farneth,
   D. C. Fuls, A. R. Gibbs, A. D. Grauer, H. Gröller, J. A. Johnson, R. A.
   Kowalski, S. M. Larson, G. J. Leonard, D. Rankin, R. L. Seaman, F. C.
   Shelly, K. W. Wierzchoś. 1.55-m reflector + CCD.

Orbital elements:  C0V8ED5
   Perihelion 2025 Mar 25.64277 +/- 112 TT = 15:25:35 (JD 2460760.14277)
Epoch 2024 Nov 26.0 TT = JDT 2460640.5   Earth MOID: 0.1680   Me: 0.0651
M 187.47029803 +/- 70               (J2000 ecliptic)             AutoNEOCP
n   1.44204029 +/- 0.357            Peri.  178.17826 +/- 57
a   0.77592149 +/- 0.128            Node    58.44607 +/- 1.1
e   0.4906511 +/- 0.118             Incl.   53.68862 +/- 33
P   0.683/249.642d         H 24.31  G  0.15   U 12.1  SR
q 0.39521473 +/- 0.241    Q 1.15662826 +/- 0.253
From 10 observations 2024 Nov. 26 (3.2 hr); mean residual 0".31
Residuals in arcseconds: 
241126 V00  .42-  .00     241126 291  .18-  .06+    241126 V06  .22+  .20-    
241126 V00  .05+  .02-    241126 291  .25-  .05-    241126 V06  .25+  .06+    
241126 V00  .04+  .02-    241126 291  .67-  .54+    
241126 V00  .78+  .12-    241126 V06  .17+  .24-    

Ephemerides (geocentric):
Date (UTC) HH   RA             Dec           delta  r     elong  mag " sig PA
---- --------  ------------   ------------  ------ ------ -----  --- --------
2024 12 01 19  00 47 06.782   +23 55 22.97  .23922 1.1501 128.4 23.1 294'  73
2024 12 01 20  00 46 42.601   +23 57 09.27  .23964 1.1500 128.3 23.2 300'  74
2024 12 01 21  00 46 18.503   +23 58 54.99  .24005 1.1500 128.2 23.2 305'  74
2024 12 01 22  00 45 54.487   +24 00 40.13  .24047 1.1499 128.1 23.2 310'  74
2024 12 01 23  00 45 30.553   +24 02 24.69  .24089 1.1499 127.9 23.2 316'  74
2024 12 02 00  00 45 06.700   +24 04 08.69  .24131 1.1498 127.8 23.2 321'  74
2024 12 02 01  00 44 42.929   +24 05 52.12  .24172 1.1498 127.7 23.2 327'  74
2024 12 02 02  00 44 19.239   +24 07 34.99  .24214 1.1497 127.6 23.2 332'  75
2024 12 02 03  00 43 55.630   +24 09 17.30  .24256 1.1497 127.5 23.2 338'  75
2024 12 02 04  00 43 32.102   +24 10 59.05  .24298 1.1496 127.3 23.2 343'  75
2024 12 02 05  00 43 08.655   +24 12 40.25  .24340 1.1496 127.2 23.2 349'  75
2024 12 02 06  00 42 45.288   +24 14 20.89  .24383 1.1495 127.1 23.2 355'  75
2024 12 02 07  00 42 22.001   +24 16 01.00  .24425 1.1495 127.0 23.2 361'  75
2024 12 02 08  00 41 58.794   +24 17 40.55  .24467 1.1494 126.8 23.2 367'  76
2024 12 02 09  00 41 35.667   +24 19 19.57  .24510 1.1494 126.7 23.2 372'  76
2024 12 02 10  00 41 12.620   +24 20 58.06  .24552 1.1493 126.6 23.2 378'  76
2024 12 02 11  00 40 49.652   +24 22 36.01  .24595 1.1493 126.5 23.2 384'  76
2024 12 02 12  00 40 26.763   +24 24 13.43  .24637 1.1492 126.4 23.3 390'  76
2024 12 02 13  00 40 03.953   +24 25 50.32  .24680 1.1492 126.2 23.3 396'  76
2024 12 02 14  00 39 41.222   +24 27 26.69  .24723 1.1491 126.1 23.3 402'  77
2024 12 02 15  00 39 18.569   +24 29 02.54  .24765 1.1491 126.0 23.3 408'  77
2024 12 02 16  00 38 55.994   +24 30 37.87  .24808 1.1490 125.9 23.3 415'  77
2024 12 02 17  00 38 33.498   +24 32 12.69  .24851 1.1490 125.8 23.3 421'  77
2024 12 02 18  00 38 11.079   +24 33 47.00  .24894 1.1489 125.7 23.3 427'  77
2024 12 02 19  00 37 48.738   +24 35 20.81  .24937 1.1488 125.5 23.3 433'  78
2024 12 02 20  00 37 26.475   +24 36 54.10  .24980 1.1488 125.4 23.3 439'  78
2024 12 02 21  00 37 04.288   +24 38 26.90  .25024 1.1487 125.3 23.3 446'  78
2024 12 02 22  00 36 42.178   +24 39 59.20  .25067 1.1487 125.2 23.3 452'  78
2024 12 02 23  00 36 20.146   +24 41 31.01  .25110 1.1486 125.1 23.3 458'  78
2024 12 03 00  00 35 58.189   +24 43 02.32  .25153 1.1486 125.0 23.3 464'  78
2024 12 03 01  00 35 36.309   +24 44 33.14  .25197 1.1485 124.8 23.3 471'  79
2024 12 03 02  00 35 14.505   +24 46 03.48  .25240 1.1485 124.7 23.3 477'  79
2024 12 03 03  00 34 52.777   +24 47 33.34  .25284 1.1484 124.6 23.3 484'  79
2024 12 03 04  00 34 31.125   +24 49 02.72  .25327 1.1483 124.5 23.3 490'  79
2024 12 03 05  00 34 09.547   +24 50 31.62  .25371 1.1483 124.4 23.4 496'  79
2024 12 03 06  00 33 48.045   +24 52 00.05  .25415 1.1482 124.3 23.4 503'  80
2024 12 03 07  00 33 26.618   +24 53 28.01  .25459 1.1482 124.2 23.4 509'  80
2024 12 03 08  00 33 05.266   +24 54 55.50  .25502 1.1481 124.0 23.4 516'  80
2024 12 03 09  00 32 43.988   +24 56 22.53  .25546 1.1481 123.9 23.4 522'  80
2024 12 03 10  00 32 22.784   +24 57 49.09  .25590 1.1480 123.8 23.4 528'  80
2024 12 03 11  00 32 01.655   +24 59 15.20  .25634 1.1480 123.7 23.4 535'  80
2024 12 03 12  00 31 40.599   +25 00 40.85  .25678 1.1479 123.6 23.4 541'  81
2024 12 03 13  00 31 19.617   +25 02 06.05  .25722 1.1478 123.5 23.4 548'  81
2024 12 03 14  00 30 58.708   +25 03 30.81  .25767 1.1478 123.4 23.4 554'  81
2024 12 03 15  00 30 37.872   +25 04 55.11  .25811 1.1477 123.3 23.4 561'  81
2024 12 03 16  00 30 17.109   +25 06 18.97  .25855 1.1477 123.1 23.4 567'  81
2024 12 03 17  00 29 56.418   +25 07 42.39  .25899 1.1476 123.0 23.4 574'  82
2024 12 03 18  00 29 35.801   +25 09 05.37  .25944 1.1475 122.9 23.4 580'  82